When you browse on this site, cookies collect data to enhance your experience and personalize the content and advertising you see.
Visit our Privacy Policy to learn more. By continuing to use the site, you agree to this use of cookies and data.
  • en Suisse
  • Liste des pays
  • À 7 jours
  • Température de l'eau
  • Carte satellitaire
  • Carte météo
  • Widgets météo
  • user-avatar
    Se connecter

    Météo par heure à Cairns

    Ce jour, 10 Décembre, Lundi

    Heure Température Précipitation Vent Pression Humidité
    00:00 +27°C° 5.8 mm 9 m/s 752 mmHg 95%
    01:00 +27°C° 5.8 mm 9 m/s 752 mmHg 95%
    02:00 +27°C° 6.4 mm 9 m/s 751 mmHg 95%
    03:00 +27°C° 6.4 mm 9 m/s 751 mmHg 95%
    04:00 +28°C° 0 mm 10 m/s 751 mmHg 94%
    05:00 +28°C° 7.6 mm 9 m/s 751 mmHg 94%
    06:00 +27°C° 7.6 mm 8 m/s 752 mmHg 95%
    07:00 +27°C° 7.6 mm 7 m/s 752 mmHg 96%
    08:00 +28°C° 3.5 mm 6 m/s 753 mmHg 95%
    09:00 +28°C° 3.5 mm 5 m/s 753 mmHg 94%
    10:00 +28°C° 0 mm 3 m/s 754 mmHg 93%
    11:00 +28°C° 1.1 mm 3 m/s 754 mmHg 92%
    12:00 +29°C° 1.1 mm 3 m/s 754 mmHg 91%
    13:00 +29°C° 1.1 mm 4 m/s 754 mmHg 90%
    14:00 +29°C° 0.8 mm 4 m/s 753 mmHg 89%
    15:00 +29°C° 0.8 mm 4 m/s 753 mmHg 89%
    16:00 +29°C° 0 mm 4 m/s 753 mmHg 90%
    17:00 +28°C° 0.7 mm 4 m/s 753 mmHg 92%
    18:00 +28°C° 0.7 mm 4 m/s 754 mmHg 94%
    19:00 +27°C° 0.7 mm 3 m/s 754 mmHg 95%
    20:00 +27°C° 0.9 mm 3 m/s 755 mmHg 96%
    21:00 +27°C° 0.9 mm 3 m/s 755 mmHg 96%
    22:00 +27°C° 0 mm 2 m/s 756 mmHg 96%
    23:00 +27°C° 0.5 mm 2 m/s 756 mmHg 97%

    Demain, 11 Décembre, Mardi

    Heure Température Précipitation Vent Pression Humidité
    00:00 +27°C° 0.5 mm 2 m/s 755 mmHg 97%
    01:00 +27°C° 0.5 mm 2 m/s 755 mmHg 97%
    02:00 +27°C° 0.5 mm 2 m/s 755 mmHg 97%
    03:00 +27°C° 0.5 mm 2 m/s 755 mmHg 97%
    04:00 +26°C° 0.5 mm 2 m/s 755 mmHg 97%
    05:00 +27°C° 0.4 mm 2 m/s 755 mmHg 96%
    06:00 +27°C° 0.4 mm 2 m/s 756 mmHg 95%
    07:00 +27°C° 0.4 mm 2 m/s 756 mmHg 94%
    08:00 +29°C° 0.3 mm 2 m/s 756 mmHg 88%
    09:00 +30°C° 0.3 mm 2 m/s 756 mmHg 82%
    10:00 +32°C° 0.3 mm 2 m/s 756 mmHg 75%
    11:00 +33°C° 0.1 mm 3 m/s 756 mmHg 73%
    12:00 +34°C° 0.1 mm 3 m/s 756 mmHg 71%
    13:00 +34°C° 0.1 mm 3 m/s 755 mmHg 69%
    14:00 +34°C° 0.1 mm 3 m/s 755 mmHg 70%
    15:00 +34°C° 0.1 mm 3 m/s 755 mmHg 71%
    16:00 +34°C° 0.1 mm 3 m/s 754 mmHg 73%
    17:00 +31°C° 0 mm 3 m/s 755 mmHg 79%
    18:00 +30°C° 0 mm 2 m/s 755 mmHg 85%
    19:00 +29°C° 0 mm 2 m/s 755 mmHg 91%
    20:00 +28°C° 0 mm 2 m/s 756 mmHg 92%
    21:00 +28°C° 0 mm 2 m/s 756 mmHg 94%
    22:00 +28°C° 0 mm 1 m/s 757 mmHg 95%
    23:00 +27°C° 0 mm 1 m/s 756 mmHg 95%

    Après-demain, 12 Décembre, Mercredi

    Heure Température Précipitation Vent Pression Humidité
    00:00 +27°C° 0 mm 1 m/s 756 mmHg 96%
    01:00 +27°C° 0 mm 1 m/s 756 mmHg 96%
    02:00 +27°C° 0 mm 1 m/s 755 mmHg 96%
    03:00 +27°C° 0 mm 1 m/s 755 mmHg 96%
    04:00 +27°C° 0 mm 2 m/s 755 mmHg 96%
    05:00 +27°C° 0 mm 2 m/s 755 mmHg 94%
    06:00 +28°C° 0 mm 2 m/s 756 mmHg 93%
    07:00 +28°C° 0 mm 2 m/s 756 mmHg 91%
    08:00 +30°C° 0 mm 2 m/s 756 mmHg 84%
    09:00 +31°C° 0 mm 2 m/s 757 mmHg 77%
    10:00 +34°C° 0 mm 2 m/s 757 mmHg 69%
    11:00 +35°C° 0.1 mm 2 m/s 756 mmHg 68%
    12:00 +35°C° 0.1 mm 2 m/s 756 mmHg 67%
    13:00 +36°C° 0.1 mm 2 m/s 755 mmHg 66%
    14:00 +35°C° 0.2 mm 2 m/s 755 mmHg 69%
    15:00 +35°C° 0.2 mm 2 m/s 754 mmHg 71%
    16:00 +34°C° 0.2 mm 2 m/s 754 mmHg 74%
    17:00 +32°C° 0.2 mm 2 m/s 754 mmHg 80%
    18:00 +31°C° 0.2 mm 1 m/s 754 mmHg 86%
    19:00 +29°C° 0.2 mm 1 m/s 755 mmHg 92%
    20:00 +29°C° 0.2 mm 1 m/s 755 mmHg 93%
    21:00 +28°C° 0.2 mm 1 m/s 756 mmHg 94%
    22:00 +28°C° 0.2 mm 1 m/s 756 mmHg 96%
    23:00 +28°C° 0 mm 1 m/s 756 mmHg 96%

    13 Décembre, Jeudi

    Heure Température Précipitation Vent Pression Humidité
    00:00 +28°C° 0 mm 1 m/s 755 mmHg 96%
    01:00 +27°C° 0 mm 1 m/s 755 mmHg 96%
    02:00 +27°C° 0 mm 1 m/s 754 mmHg 96%
    03:00 +27°C° 0 mm 1 m/s 754 mmHg 96%
    04:00 +27°C° 0 mm 1 m/s 754 mmHg 96%
    05:00 +28°C° 0 mm 1 m/s 755 mmHg 94%
    06:00 +26°C° 0 mm 0 m/s 755 mmHg 91%
    07:00 +27°C° 0 mm 0 m/s 756 mmHg 89%
    08:00 +29°C° 0.3 mm 1 m/s 756 mmHg 87%
    09:00 +30°C° 0.3 mm 1 m/s 756 mmHg 85%
    10:00 +31°C° 0.3 mm 2 m/s 757 mmHg 82%
    11:00 +31°C° 0.8 mm 2 m/s 756 mmHg 83%
    12:00 +31°C° 0.8 mm 1 m/s 755 mmHg 84%
    13:00 +31°C° 0.8 mm 1 m/s 755 mmHg 85%
    14:00 +31°C° 0.3 mm 1 m/s 754 mmHg 83%
    15:00 +32°C° 0.3 mm 1 m/s 754 mmHg 81%
    16:00 +32°C° 0.3 mm 1 m/s 753 mmHg 79%
    17:00 +31°C° 0.5 mm 2 m/s 754 mmHg 84%
    18:00 +30°C° 0.5 mm 2 m/s 754 mmHg 89%
    19:00 +29°C° 0.5 mm 2 m/s 754 mmHg 94%
    20:00 +28°C° 0 mm 2 m/s 754 mmHg 94%
    21:00 +28°C° 0 mm 3 m/s 754 mmHg 95%
    22:00 +28°C° 0 mm 3 m/s 754 mmHg 96%
    23:00 +28°C° 0 mm 3 m/s 754 mmHg 96%

    14 Décembre, Vendredi

    Heure Température Précipitation Vent Pression Humidité
    00:00 +28°C° 0 mm 3 m/s 753 mmHg 95%
    01:00 +28°C° 0 mm 3 m/s 753 mmHg 95%
    02:00 +28°C° 0 mm 2 m/s 753 mmHg 95%
    03:00 +27°C° 0 mm 2 m/s 752 mmHg 94%
    04:00 +27°C° 0 mm 2 m/s 752 mmHg 94%
    05:00 +28°C° 0.1 mm 2 m/s 753 mmHg 92%
    06:00 +28°C° 0.1 mm 1 m/s 753 mmHg 91%
    07:00 +29°C° 0.1 mm 1 m/s 754 mmHg 89%
    08:00 +30°C° 0.2 mm 2 m/s 754 mmHg 82%
    09:00 +31°C° 0.2 mm 2 m/s 754 mmHg 76%
    10:00 +34°C° 0.2 mm 3 m/s 754 mmHg 69%
    11:00 +34°C° 1.7 mm 3 m/s 753 mmHg 71%
    12:00 +34°C° 1.7 mm 4 m/s 753 mmHg 74%
    13:00 +34°C° 1.7 mm 5 m/s 752 mmHg 76%
    14:00 +33°C° 1 mm 4 m/s 752 mmHg 80%
    15:00 +32°C° 1 mm 4 m/s 752 mmHg 84%
    16:00 +30°C° 1 mm 4 m/s 751 mmHg 89%
    17:00 +30°C° 0.4 mm 4 m/s 752 mmHg 91%
    18:00 +29°C° 0.4 mm 4 m/s 752 mmHg 93%
    19:00 +29°C° 0.4 mm 4 m/s 753 mmHg 95%
    20:00 +28°C° 1.3 mm 4 m/s 753 mmHg 95%
    21:00 +28°C° 1.3 mm 4 m/s 753 mmHg 95%
    22:00 +28°C° 1.3 mm 4 m/s 754 mmHg 96%
    23:00 +28°C° 2.5 mm 4 m/s 753 mmHg 96%

    15 Décembre, Samedi

    Heure Température Précipitation Vent Pression Humidité
    00:00 +28°C° 2.5 mm 5 m/s 752 mmHg 97%
    01:00 +28°C° 2.5 mm 5 m/s 751 mmHg 97%
    02:00 +28°C° 1.5 mm 6 m/s 750 mmHg 97%
    03:00 +28°C° 1.5 mm 6 m/s 750 mmHg 96%
    04:00 +28°C° 1.5 mm 7 m/s 749 mmHg 96%
    05:00 +28°C° 2.1 mm 8 m/s 749 mmHg 95%
    06:00 +28°C° 2.1 mm 9 m/s 749 mmHg 95%
    07:00 +28°C° 2.1 mm 10 m/s 749 mmHg 94%
    08:00 +29°C° 1.3 mm 11 m/s 749 mmHg 93%
    09:00 +29°C° 1.3 mm 11 m/s 749 mmHg 91%
    10:00 +29°C° 1.3 mm 12 m/s 749 mmHg 90%
    11:00 +29°C° 0.9 mm 11 m/s 748 mmHg 89%
    12:00 +29°C° 0.9 mm 10 m/s 748 mmHg 87%
    13:00 +29°C° 0.9 mm 10 m/s 748 mmHg 86%
    14:00 +29°C° 0.2 mm 9 m/s 748 mmHg 84%
    15:00 +29°C° 0.2 mm 7 m/s 748 mmHg 82%
    16:00 +30°C° 0.2 mm 6 m/s 748 mmHg 80%
    17:00 +29°C° 0 mm 5 m/s 749 mmHg 80%
    18:00 +29°C° 0 mm 5 m/s 749 mmHg 80%
    19:00 +29°C° 0 mm 4 m/s 750 mmHg 81%
    20:00 +29°C° 0 mm 4 m/s 751 mmHg 81%
    21:00 +29°C° 0 mm 4 m/s 751 mmHg 82%
    22:00 +28°C° 0 mm 4 m/s 752 mmHg 83%
    23:00 +28°C° 0 mm 4 m/s 752 mmHg 82%
    Voir plus